Location: ??????????
(54.8537°N, 38.8755°E)
Time: 02:34:06
(UTC+00:00)

Vanguard 2 Rocket - Pass Details

Date: 13 September 2024
Orbit: 553 x 3298 km, 32.9° (Epoch: 10 October)

Event Time Altitude Azimuth Distance (km) Brightness Sun altitude
Rises 00:28:52 0° 229° (SW) 5,264 - -19.8°
Reaches altitude 10° 00:32:28 10° 219° (SW) 4,635 - -19.4°
Exits shadow 00:35:45 19° 207° (SSW) 4,228 9.7 -19.0°
Maximum altitude 00:43:50 31° 165° (SSE) 4,093 10.0 -18.1°
Drops below altitude 10° 00:58:59 10° 114° (ESE) 6,210 11.6 -16.3°
Sets 01:04:50 0° 106° (ESE) 7,280 12.2 -15.6°
